This demonstration page uses our WeatherBlox Daily Observations layout. Learn more.

Left ArrowRight Arrow

39.01783, -85.05884

Hourly Observations for May 13, 2022

Temp ( °F °C ) Dew Point ( °F °C ) Humidity (%) Winds ( mph kmh ) Pressure ( in mb ) Visibility ( mi km ) Precip ( " mm )
12:52 am 00:52 Mostly Cloudy 69 20.6 53 11.7 57 57 E 7 11 30.03 1017 10 16 0.00 0.00
1:52 am 01:52 Mostly Cloudy 68 20 53 11.7 59 59 E 8 13 30.03 1017 10 16 0.00 0.00
2:52 am 02:52 Mostly Cloudy 68 20 53 11.7 59 59 E 6 9 30.02 1017 10 16 0.00 0.00
3:52 am 03:52 Mostly Cloudy 68 20 53 11.7 59 59 ESE 12 19 30.01 1016 10 16 0.00 0.00
4:52 am 04:52 Mostly Cloudy 67 19.4 55 12.8 66 66 SE 13 20 30.02 1017 10 16 0.00 0.00
5:52 am 05:52 Partly Cloudy 65 18.3 56 13.3 73 73 SE 13 20 30.02 1017 10 16 0.00 0.00
6:52 am 06:52 Partly Cloudy 64 17.8 56 13.3 75 75 SE 10 17 30.03 1017 10 16 0.00 0.00
7:52 am 07:52 Partly Cloudy 66 18.9 57 13.9 73 73 ESE 8 13 30.05 1018 10 16 0.00 0.00
8:52 am 08:52 Partly Cloudy 69 20.6 59 15 70 70 SE 9 15 30.06 1018 10 16 0.00 0.00
9:52 am 09:52 Partly Cloudy 71 21.7 60 15.6 68 68 SSE 10 17 30.06 1018 10 16 0.00 0.00
10:52 am 10:52 Partly Cloudy 74 23.3 61 16.1 64 64 SE 9 15 30.06 1018 10 16 0.00 0.00
11:52 am 11:52 Mostly Sunny 77 25 62 16.7 60 60 SSE 9 15 30.04 1017 10 16 0.00 0.00
12:52 pm 12:52 Mostly Sunny 78 25.6 60 15.6 54 54 VRB 5 7 30.03 1017 10 16 0.00 0.00
1:52 pm 13:52 Mostly Sunny 81 27.2 62 16.7 53 53 SE 7 11 30.01 1016 10 16 0.00 0.00
2:52 pm 14:52 Mostly Sunny 81 27.2 61 16.1 51 51 SSW 7 11 30.01 1016 10 16 0.00 0.00
3:52 pm 15:52 Partly Cloudy 82 27.8 62 16.7 51 51 S 8 13 29.98 1015 10 16 0.00 0.00
4:52 pm 16:52 Partly Cloudy 83 28.3 61 16.1 48 48 ESE 6 9 29.96 1014 10 16 0.00 0.00
5:52 pm 17:52 Mostly Cloudy 82 27.8 59 15 46 46 ESE 12 19 29.94 1014 10 16 0.00 0.00
6:52 pm 18:52 Mostly Cloudy 80 26.7 59 15 49 49 ESE 10 17 29.93 1014 10 16 0.00 0.00
7:52 pm 19:52 Mostly Cloudy 80 26.7 60 15.6 51 51 ESE 7 11 29.93 1013 10 16 0.00 0.00
8:52 pm 20:52 Mostly Cloudy 77 25 59 15 54 54 ESE 8 13 29.93 1014 10 16 0.00 0.00
9:52 pm 21:52 Mostly Cloudy 75 23.9 60 15.6 60 60 ESE 7 11 29.94 1014 10 16 0.00 0.00
10:52 pm 22:52 Partly Cloudy 75 23.9 60 15.6 60 60 SE 13 20 29.93 1013 10 16 0.00 0.00
11:52 pm 23:52 Mostly Clear 72 22.2 60 15.6 66 66 SE 9 15 29.94 1014 10 16 0.00 0.00

Powered by AerisWeather